This is the latest recevied weather packets stored in our database for station/object SV9TNF-56. If no packets are shown the sender has not sent any weather packets the latest 10 day(s).
| Time | Temp. | Humidity | Pressure | Rain* | Wind** | Luminosity | Snow |
|---|---|---|---|---|---|---|---|
| 1788132152 | 24.44° C | 74% | 1019 hPa | 0 mm | 14.31 m/s, 300° | - | - |
| 1788131852 | 24.44° C | 72% | 1019 hPa | 0 mm | 14.31 m/s, 330° | - | - |
| 1788131552 | 24.44° C | 72% | 1019.3 hPa | 0 mm | 7.15 m/s, 330° | - | - |
| 1788131252 | 24.44° C | 71% | 1019.3 hPa | 0 mm | 13.41 m/s, 334° | - | - |
| 1788130952 | 24.44° C | 70% | 1019.3 hPa | 0 mm | 12.07 m/s, 6° | - | - |
| 1788130667 | 24.44° C | 68% | 1019.3 hPa | 0 mm | 19.67 m/s, 306° | - | - |
| 1788130351 | 24.44° C | 67% | 1019 hPa | 0 mm | 16.99 m/s, 312° | - | - |
| 1788130052 | 24.44° C | 67% | 1019.3 hPa | 0 mm | 15.2 m/s, 324° | - | - |
| 1788129752 | 24.44° C | 65% | 1019 hPa | 0 mm | 16.99 m/s, 268° | - | - |
| 1788129451 | 24.44° C | 64% | 1019.3 hPa | 0 mm | 19.67 m/s, 312° | - | - |
| 1788129151 | 25° C | 62% | 1019.3 hPa | 0 mm | 23.69 m/s, 277° | - | - |
| 1788128851 | 25° C | 59% | 1019 hPa | 0 mm | 20.56 m/s, 341° | - | - |
| 1788128551 | 25° C | 58% | 1019.3 hPa | 0 mm | 15.2 m/s, 329° | - | - |
| 1788128251 | 25° C | 55% | 1019 hPa | 0 mm | 15.2 m/s, 222° | - | - |
| 1788127951 | 25° C | 56% | 1019.3 hPa | 0 mm | 27.72 m/s, 288° | - | - |
| 1788127651 | 25° C | 56% | 1019.3 hPa | 0 mm | 24.14 m/s, 178° | - | - |
| 1788127351 | 25° C | 58% | 1019.3 hPa | 0 mm | 21.46 m/s, 0° | - | - |
| 1788127051 | 25° C | 58% | 1019.6 hPa | 0 mm | 19.67 m/s, 290° | - | - |
| 1788126750 | 25° C | 59% | 1019.3 hPa | 0 mm | 19.67 m/s, 300° | - | - |
| 1788126451 | 24.44° C | 61% | 1019.3 hPa | 0 mm | 14.31 m/s, 269° | - | - |
| 1788126150 | 24.44° C | 62% | 1019.3 hPa | 0 mm | 16.54 m/s, 318° | - | - |
| 1788125851 | 24.44° C | 63% | 1019.6 hPa | 0 mm | 17.88 m/s, 287° | - | - |
| 1788125551 | 24.44° C | 62% | 1019.3 hPa | 0 mm | 3.13 m/s, 174° | - | - |
| 1788125250 | 24.44° C | 62% | 1019.3 hPa | 0 mm | 12.96 m/s, 168° | - | - |
| 1788124950 | 24.44° C | 61% | 1019.3 hPa | 0 mm | 10.28 m/s, 246° | - | - |
* Rain latest hour (hover to see other rain measurements)
** Current wind speed in m/s (hover to see current wind gust speed)